Location: Berville
(49.1893°N, 2.0748°E)
Time: 12:38:23
(UTC+00:00)

Cosmos 1943 Rocket - Pass Details

Date: 08 February 2023
Orbit: 811 x 844 km, 71.0° (Epoch: 26 March)

Event Time Altitude Azimuth Distance (km) Brightness Sun altitude
Rises 18:58:51 0° 334° (NNW) 3,415 5.7 -19.8°
Reaches altitude 10° 19:01:31 10° 343° (NNW) 2,475 4.8 -20.3°
Maximum altitude 19:06:45 36° 50° (NE) 1,302 2.8 -21.1°
Enters shadow 19:07:00 36° 56° (NE) 1,305 2.8 -21.2°
